GW2328 Weather Reports


Display with metric or nautical units.
time (UTC)temp
F
wind
direction
speed
MPH
gust
MPH
rain 1hr
in
rain 24hr
in
rain mn
in
humidity
%
barometer
mb
20260505204132 62 145 0.0 0.0 0.07 0.50 0.50 95 1012.3
20260505203628 62 145 0.0 0.0 0.05 0.49 0.49 95 1012.4
20260505203125 62 150 0.0 0.0 0.12 0.49 0.49 95 1012.4
20260505202621 61 149 0.0 0.0 0.12 0.48 0.48 95 1012.5
20260505202117 61 151 0.0 1.0 0.19 0.47 0.47 94 1012.6
20260505201613 61 142 0.0 0.0 0.12 0.45 0.45 94 1012.6
20260505201111 61 151 0.0 0.0 0.12 0.44 0.44 94 1012.5
20260505200609 61 149 0.0 1.0 0.19 0.43 0.43 94 1012.7
20260505200106 61 145 0.0 0.0 0.19 0.41 0.41 94 1012.8
20260505195602 61 147 0.0 0.0 0.24 0.40 0.40 94 1012.9
20260505195100 61 151 0.0 1.0 0.24 0.38 0.38 93 1012.8
20260505194556 61 147 0.0 0.0 0.26 0.35 0.35 93 1012.8
20260505194052 61 155 0.0 2.0 0.19 0.33 0.33 93 1013.1
20260505193549 61 149 0.0 2.0 0.17 0.31 0.31 93 1012.9
20260505193046 61 158 1.0 1.0 0.12 0.29 0.29 93 1013.2
20260505192545 61 151 0.0 2.0 0.19 0.28 0.28 92 1013.1
20260505192042 61 141 0.0 0.0 0.24 0.27 0.27 92 1013.3
20260505191540 62 148 0.0 1.0 0.17 0.25 0.25 92 1013.4
20260505191038 62 148 0.0 0.0 0.12 0.23 0.23 92 1013.4
20260505190532 62 150 0.0 0.0 0.12 0.22 0.22 91 1013.4
20260505190029 62 150 0.0 1.0 0.12 0.21 0.21 91 1013.6
20260505185525 62 149 0.0 0.0 0.07 0.20 0.20 91 1013.6
20260505185022 62 151 1.0 1.0 0.07 0.19 0.19 90 1013.5
20260505184519 62 146 0.0 0.0 0.12 0.19 0.19 90 1013.3
20260505184016 61 139 0.0 1.0 0.12 0.18 0.18 90 1013.6
20260505183512 62 152 0.0 1.0 0.07 0.17 0.17 89 1013.4
20260505183009 62 143 0.0 0.0 0.12 0.16 0.16 89 1013.5
20260505182506 61 147 0.0 0.0 0.12 0.16 0.16 88 1013.7
20260505182002 61 148 1.0 1.0 0.05 0.14 0.14 87 1013.6
20260505181459 61 151 0.0 0.0 0.17 0.14 0.14 87 1013.7
20260505180956 61 150 1.0 1.0 0.24 0.13 0.13 86 1013.9
20260505180452 62 151 1.0 1.0 0.31 0.11 0.11 85 1013.7
20260505175949 62 146 0.0 0.0 0.31 0.09 0.09 85 1013.9
20260505175445 62 175 3.0 6.0 0.31 0.06 0.06 83 1014.0
20260505174941 63 359 4.0 5.0 0.17 0.03 0.03 82 1014.2
20260505174434 64 145 2.0 3.0 0.05 0.01 0.01 80 1014.1
20260505173930 65 196 2.0 3.0 0.00 0.00 0.00 79 1014.2
20260505173426 66 155 0.0 0.0 0.00 0.00 0.00 77 1013.4
20260505172923 66 146 0.0 0.0 0.00 0.00 0.00 76 1013.7
20260505172422 66 151 0.0 1.0 0.00 0.00 0.00 75 1013.5
20260505171920 67 151 0.0 1.0 0.00 0.00 0.00 74 1013.5
20260505171417 67 165 1.0 1.0 0.00 0.00 0.00 74 1013.8
20260505170914 67 148 1.0 2.0 0.00 0.00 0.00 73 1013.6
20260505170411 67 170 0.0 2.0 0.00 0.00 0.00 73 1013.6
20260505165906 67 172 1.0 1.0 0.00 0.00 0.00 74 1013.6
20260505165403 67 154 0.0 1.0 0.00 0.00 0.00 74 1013.6
20260505164858 66 150 0.0 2.0 0.00 0.00 0.00 74 1013.5
20260505164355 66 157 0.0 2.0 0.00 0.00 0.00 74 1013.8
20260505163853 66 151 0.0 1.0 0.00 0.00 0.00 74 1013.7
20260505163352 66 147 1.0 1.0 0.00 0.00 0.00 74 1013.7
20260505162850 66 161 0.0 2.0 0.00 0.00 0.00 74 1013.9
20260505162346 66 145 1.0 2.0 0.00 0.00 0.00 74 1013.8
20260505161843 66 155 1.0 2.0 0.00 0.00 0.00 74 1013.9
20260505161340 66 154 1.0 3.0 0.00 0.00 0.00 74 1013.8
20260505160837 66 154 1.0 3.0 0.00 0.00 0.00 75 1013.7
20260505160335 66 150 1.0 2.0 0.00 0.00 0.00 75 1013.7
20260505153313 64 145 0.0 0.0 0.00 0.00 0.00 77 1013.7
20260505152811 64 169 0.0 2.0 0.00 0.00 0.00 78 1013.7
20260505152307 64 155 0.0 2.0 0.00 0.00 0.00 79 1013.9
20260505151802 64 190 2.0 6.0 0.00 0.00 0.00 79 1013.8
20260505151259 64 172 3.0 5.0 0.00 0.00 0.00 80 1013.6
20260505150756 64 145 0.0 2.0 0.00 0.00 0.00 81 1013.8
20260505150253 64 151 0.0 2.0 0.00 0.00 0.00 82 1013.5
20260505140217 62 168 1.0 1.0 0.00 0.00 0.00 92 1013.4
20260505130142 59 153 0.0 1.0 0.00 0.00 0.00 93 1013.8
20260505124631 59 151 0.0 1.0 0.00 0.00 0.00 93 1013.5
20260505124128 59 150 0.0 0.0 0.00 0.00 0.00 93 1013.8
20260505123623 59 150 0.0 0.0 0.00 0.00 0.00 93 1013.6
20260505123120 58 149 0.0 0.0 0.00 0.00 0.00 92 1013.8
20260505122617 58 149 0.0 0.0 0.00 0.00 0.00 92 1013.9
20260505122115 58 150 0.0 0.0 0.00 0.00 0.00 92 1013.9
20260505121611 58 149 0.0 1.0 0.00 0.00 0.00 92 1014.2
20260505121108 58 130 0.0 0.0 0.00 0.00 0.00 92 1014.1
20260505120604 58 153 0.0 1.0 0.00 0.00 0.00 91 1013.8
20260505120100 58 148 0.0 1.0 0.00 0.00 0.00 91 1013.9
20260505115554 58 148 0.0 0.0 0.00 0.00 0.00 91 1013.7
20260505115052 58 148 0.0 0.0 0.00 0.00 0.00 91 1013.8
20260505114549 58 148 0.0 0.0 0.00 0.00 0.00 90 1013.7
20260505114045 58 148 0.0 0.0 0.00 0.00 0.00 90 1013.9
20260505113542 58 148 0.0 0.0 0.00 0.00 0.00 90 1014.1
20260505113038 58 148 0.0 0.0 0.00 0.00 0.00 89 1014.2
20260505112534 58 148 0.0 0.0 0.00 0.00 0.00 89 1013.9
20260505112032 58 148 0.0 0.0 0.00 0.00 0.00 89 1014.2
20260505111526 58 148 0.0 0.0 0.00 0.00 0.00 88 1014.3
20260505111023 58 148 0.0 0.0 0.00 0.00 0.00 88 1014.3
20260505110519 58 148 0.0 0.0 0.00 0.00 0.00 88 1014.2
20260505101951 59 148 0.0 0.0 0.00 0.00 0.00 82 1014.4
20260505101444 59 148 0.0 0.0 0.00 0.00 0.00 81 1014.1
20260505100940 59 148 0.0 0.0 0.00 0.00 0.00 80 1014.6
20260505100437 59 147 0.0 1.0 0.00 0.00 0.00 79 1014.5
20260505095933 59 137 0.0 1.0 0.00 0.00 0.00 78 1014.3
20260505095430 60 136 0.0 0.0 0.00 0.00 0.00 77 1014.4
20260505094926 60 156 0.0 0.0 0.00 0.00 0.00 75 1014.2
20260505094423 61 141 1.0 2.0 0.00 0.00 0.00 74 1014.4
20260505093919 62 121 0.0 2.0 0.00 0.00 0.00 71 1014.4
20260505093416 64 134 0.0 3.0 0.00 0.00 0.00 68 1014.4
20260505092914 65 143 0.0 1.0 0.00 0.00 0.00 66 1014.5
20260505092412 66 116 1.0 9.0 0.00 0.00 0.00 63 1014.5
20260505091909 67 139 1.0 5.0 0.00 0.00 0.00 61 1014.2
20260505091406 67 46 3.0 3.0 0.00 0.00 0.00 60 1013.8
20260505090904 66 142 1.0 2.0 0.00 0.00 0.00 60 1013.2
20260505090402 67 137 0.0 2.0 0.00 0.00 0.00 59 1012.6
20260505085859 67 151 0.0 5.0 0.00 0.00 0.00 59 1012.2
20260505085357 67 146 0.0 2.0 0.00 0.00 0.00 59 1012.5
20260505084855 67 168 1.0 5.0 0.00 0.00 0.00 59 1012.2
20260505084353 67 152 1.0 5.0 0.00 0.00 0.00 59 1012.2
20260505083850 67 198 0.0 2.0 0.00 0.00 0.00 59 1012.0
20260505083348 67 145 1.0 3.0 0.00 0.00 0.00 59 1011.8
20260505082844 67 172 2.0 3.0 0.00 0.00 0.00 59 1011.9
20260505082340 67 157 2.0 7.0 0.00 0.00 0.00 59 1011.7
20260505081837 67 186 3.0 5.0 0.00 0.00 0.00 59 1011.6
20260505081333 66 159 1.0 3.0 0.00 0.00 0.00 59 1011.8
20260505080830 66 177 3.0 5.0 0.00 0.00 0.00 60 1011.5
20260505080326 66 168 2.0 8.0 0.00 0.00 0.00 60 1011.3
20260505075821 66 132 3.0 5.0 0.00 0.00 0.00 60 1011.2
20260505075319 66 148 0.0 3.0 0.00 0.00 0.00 60 1011.6
20260505074816 66 174 3.0 5.0 0.00 0.00 0.00 60 1011.5
20260505074313 66 186 2.0 3.0 0.00 0.00 0.00 59 1011.4
20260505073811 66 195 2.0 2.0 0.00 0.00 0.00 59 1011.5
20260505073309 67 158 1.0 3.0 0.00 0.00 0.00 59 1011.5
20260505072805 67 160 0.0 2.0 0.00 0.00 0.00 59 1011.4
20260505072301 67 166 2.0 5.0 0.00 0.00 0.00 59 1011.5
20260505071757 67 138 1.0 3.0 0.00 0.00 0.00 59 1011.6
20260505071254 67 177 1.0 3.0 0.00 0.00 0.00 59 1011.6
20260505070752 67 138 1.0 6.0 0.00 0.00 0.00 59 1011.4
20260505070248 67 162 1.0 2.0 0.00 0.00 0.00 59 1011.5
20260505065743 67 164 1.0 3.0 0.00 0.00 0.00 59 1011.5
20260505065240 67 158 4.0 6.0 0.00 0.00 0.00 58 1011.4
20260505064737 67 143 1.0 3.0 0.00 0.00 0.00 58 1011.4
20260505064235 67 155 0.0 2.0 0.00 0.00 0.00 58 1011.4
20260505063732 67 158 2.0 5.0 0.00 0.00 0.00 59 1011.4
20260505063228 67 172 1.0 5.0 0.00 0.00 0.00 59 1011.4
20260505062725 67 161 1.0 2.0 0.00 0.00 0.00 59 1011.4
20260505062223 67 235 1.0 2.0 0.00 0.00 0.00 59 1011.4
20260505061719 67 150 2.0 3.0 0.00 0.00 0.00 59 1011.3
20260505061217 67 150 1.0 5.0 0.00 0.00 0.00 60 1011.2
20260505060715 67 327 3.0 7.0 0.00 0.00 0.00 60 1011.3
20260505060211 66 153 1.0 2.0 0.00 0.00 0.00 61 1011.4
20260505055707 66 154 0.0 1.0 0.00 0.00 0.00 62 1011.3
20260505055203 66 164 0.0 1.0 0.00 0.00 0.00 62 1011.4
20260505054701 65 163 1.0 3.0 0.00 0.00 0.00 62 1011.3
20260505054159 65 151 0.0 0.0 0.00 0.00 0.00 62 1011.4
20260505053656 65 155 0.0 0.0 0.00 0.00 0.00 62 1011.3
20260505053152 65 158 0.0 1.0 0.00 0.00 0.00 62 1011.2
20260505052649 66 168 0.0 1.0 0.00 0.00 0.00 62 1011.2
20260505052147 66 160 1.0 1.0 0.00 0.00 0.00 62 1011.1
20260505051643 66 165 0.0 2.0 0.00 0.00 0.00 62 1011.1
20260505051142 65 141 0.0 1.0 0.00 0.00 0.00 62 1010.9
20260505050639 65 163 1.0 3.0 0.00 0.00 0.00 63 1010.8
20260505050137 65 145 1.0 1.0 0.00 0.00 0.00 63 1010.9
20260505041607 65 156 0.0 0.0 0.00 0.00 0.00 62 1011.4
20260505041104 65 156 0.0 0.0 0.00 0.00 0.00 62 1011.2
20260505040602 65 156 0.0 0.0 0.00 0.00 0.00 61 1011.2
20260505040059 66 156 0.0 0.0 0.00 0.00 0.00 60 1011.6
20260505035555 66 156 0.0 0.0 0.00 0.00 0.00 60 1011.5
20260505035051 66 156 0.0 0.0 0.00 0.00 0.00 59 1011.6
20260505034548 67 156 0.0 0.0 0.00 0.00 0.00 59 1011.6
20260505034045 67 156 0.0 0.0 0.00 0.00 0.00 58 1011.6
20260505033542 67 155 0.0 0.0 0.00 0.00 0.00 58 1011.6
20260505033040 67 150 0.0 0.0 0.00 0.00 0.00 58 1011.8
20260505032538 67 144 0.0 1.0 0.00 0.00 0.00 58 1011.6
20260505032034 67 158 0.0 1.0 0.00 0.00 0.00 58 1011.7
20260505031531 68 154 1.0 1.0 0.00 0.00 0.00 58 1011.7
20260505031027 68 144 0.0 1.0 0.00 0.00 0.00 58 1011.7
20260505030525 68 153 0.0 1.0 0.00 0.00 0.00 57 1011.5
20260505030021 68 166 1.0 1.0 0.00 0.00 0.00 57 1011.5
20260505025516 68 148 1.0 1.0 0.00 0.00 0.00 57 1011.4
20260505025016 68 152 0.0 1.0 0.00 0.00 0.00 57 1011.2
20260505024512 68 160 1.0 2.0 0.00 0.00 0.00 57 1011.3
20260505024009 68 151 0.0 1.0 0.00 0.00 0.00 57 1011.2
20260505023506 68 163 1.0 2.0 0.00 0.00 0.00 57 1011.1
20260505023004 68 156 0.0 0.0 0.00 0.00 0.00 56 1010.9
20260505022501 69 151 0.0 1.0 0.00 0.00 0.00 56 1010.9
20260505021958 69 150 0.0 1.0 0.00 0.00 0.00 56 1010.9
20260505021454 69 155 1.0 1.0 0.00 0.00 0.00 56 1010.9
20260505020950 69 163 1.0 1.0 0.00 0.00 0.00 56 1010.6
20260505020445 69 154 1.0 2.0 0.00 0.00 0.00 56 1010.5
20260505015943 69 161 1.0 2.0 0.00 0.00 0.00 55 1010.3
20260505015440 69 173 2.0 3.0 0.00 0.00 0.00 55 1010.3
20260505014937 69 158 0.0 1.0 0.00 0.00 0.00 55 1010.1
20260505014434 70 154 0.0 1.0 0.00 0.00 0.00 55 1010.3
20260505013931 70 158 2.0 2.0 0.00 0.00 0.00 55 1010.1
20260505013428 70 157 1.0 3.0 0.00 0.00 0.00 54 1009.9
20260505012926 70 156 0.0 0.0 0.00 0.00 0.00 53 1009.9
20260505012424 71 156 0.0 0.0 0.00 0.00 0.00 53 1009.9
20260505011920 71 156 0.0 1.0 0.00 0.00 0.00 52 1009.9
20260505011416 71 164 1.0 1.0 0.00 0.00 0.00 52 1009.7
20260505010913 71 150 0.0 1.0 0.00 0.00 0.00 51 1009.6
20260505010409 71 154 1.0 2.0 0.00 0.00 0.00 51 1009.3
20260505005904 72 152 0.0 1.0 0.00 0.00 0.00 51 1009.5
20260505005402 72 152 0.0 2.0 0.00 0.00 0.00 51 1009.4
20260505004859 72 149 0.0 3.0 0.00 0.00 0.00 50 1009.3
20260505004355 72 170 0.0 1.0 0.00 0.00 0.00 50 1009.7
20260505003853 73 148 1.0 1.0 0.00 0.00 0.00 50 1009.7
20260505003350 73 147 1.0 2.0 0.00 0.00 0.00 50 1009.8
20260505002846 73 141 0.0 2.0 0.00 0.00 0.00 50 1009.7
20260505002343 73 156 1.0 1.0 0.00 0.00 0.00 50 1009.7
20260505001841 73 157 1.0 2.0 0.00 0.00 0.00 50 1009.7
20260505001338 74 148 0.0 2.0 0.00 0.00 0.00 50 1009.3
20260505000835 74 193 1.0 2.0 0.00 0.00 0.00 50 1009.5
20260505000333 74 151 0.0 2.0 0.00 0.00 0.00 50 1009.7
20260504235829 74 159 1.0 1.0 0.00 0.00 0.00 49 1009.6
20260504235326 75 150 0.0 1.0 0.00 0.00 0.00 49 1009.9
20260504234823 75 151 0.0 0.0 0.00 0.00 0.00 48 1010.1
20260504234321 75 171 0.0 2.0 0.00 0.00 0.00 48 1009.8
20260504233817 75 150 0.0 2.0 0.00 0.00 0.00 48 1009.9
20260504233313 75 149 1.0 3.0 0.00 0.00 0.00 48 1009.9
20260504232810 76 166 2.0 3.0 0.00 0.00 0.00 47 1010.2
20260504232307 76 179 1.0 2.0 0.00 0.00 0.00 47 1010.3
20260504231804 76 170 2.0 5.0 0.00 0.00 0.00 47 1010.0
20260504231300 76 137 1.0 2.0 0.00 0.00 0.00 47 1010.2
20260504230756 76 150 1.0 1.0 0.00 0.00 0.00 47 1010.4
20260504230254 76 162 0.0 2.0 0.00 0.00 0.00 47 1010.4
20260504225753 76 156 2.0 3.0 0.00 0.00 0.00 46 1010.5
20260504225249 76 259 1.0 5.0 0.00 0.00 0.00 46 1010.9
20260504224746 76 205 5.0 9.0 0.00 0.00 0.00 45 1010.8
20260504224243 77 209 5.0 6.0 0.00 0.00 0.00 45 1010.7
20260504223740 77 163 5.0 8.0 0.00 0.00 0.00 44 1011.2
20260504223235 77 145 2.0 3.0 0.00 0.00 0.00 44 1010.9
20260504222732 77 177 1.0 5.0 0.00 0.00 0.00 44 1011.4
20260504222229 78 246 3.0 5.0 0.00 0.00 0.00 44 1011.3
20260504221727 78 142 2.0 3.0 0.00 0.00 0.00 44 1011.2
20260504221223 78 144 1.0 6.0 0.00 0.00 0.00 44 1011.5
20260504220720 78 124 2.0 5.0 0.00 0.00 0.00 45 1011.1
20260504220218 78 122 2.0 7.0 0.00 0.00 0.00 45 1011.3
20260504215714 78 161 2.0 6.0 0.00 0.00 0.00 46 1011.5
20260504215211 78 242 1.0 6.0 0.00 0.00 0.00 46 1011.3
20260504214707 78 249 1.0 3.0 0.00 0.00 0.00 46 1011.5
20260504214204 79 43 2.0 7.0 0.00 0.00 0.00 45 1011.5
20260504213700 79 197 3.0 3.0 0.00 0.00 0.00 46 1011.6
20260504213157 79 167 1.0 2.0 0.00 0.00 0.00 46 1011.6
20260504212654 79 178 1.0 3.0 0.00 0.00 0.00 46 1011.4
20260504212150 78 153 0.0 6.0 0.00 0.00 0.00 46 1011.5
20260504211648 78 143 0.0 5.0 0.00 0.00 0.00 46 1011.5
20260504211144 78 141 2.0 5.0 0.00 0.00 0.00 46 1011.6
20260504210642 78 143 1.0 2.0 0.00 0.00 0.00 46 1011.9
20260504210138 78 155 1.0 2.0 0.00 0.00 0.00 45 1012.1
20260504205636 78 134 3.0 7.0 0.00 0.00 0.00 45 1011.9
20260504205133 77 161 2.0 5.0 0.00 0.00 0.00 44 1012.0
20260504204631 78 167 2.0 7.0 0.00 0.00 0.00 43 1012.2